Stations météo

réclame
Mon MeteoGroup
Santander/Parayas, Espagne (8021): Température de l'air & dewpoint: 10.08.2018 03:00:00 - 16.08.2018 03:00:00 (CEST)Santander/Parayas, Espagne (8021): Vitesse du vent: 10.08.2018 03:00:00 - 16.08.2018 03:00:00 (CEST)Santander/Parayas, Espagne (8021): Direction du vent: 10.08.2018 03:00:00 - 16.08.2018 03:00:00 (CEST)Santander/Parayas, Espagne (8021): reduced air pressure: 10.08.2018 03:00:00 - 16.08.2018 03:00:00 (CEST)Santander/Parayas, Espagne (8021): visibility: 10.08.2018 03:00:00 - 16.08.2018 03:00:00 (CEST)Santander/Parayas, Espagne (8021): Quantités de précipitations: 10.08.2018 03:00:00 - 16.08.2018 03:00:00 (CEST)
Date & Time tt [°C] td [°C] ff [km/h] ff [knt] dd ppp [hPa] vv [km] rr [mm]
16.08.2018 03:00:00 18,4 18,4 4 2 SW 1017,5 - -
16.08.2018 02:00:00 18,0 17,8 2 1 SSW 1017,5 - -
16.08.2018 01:00:00 18,8 17,8 0 0 N 1017,6 - -
16.08.2018 00:00:00 20,3 19,0 8 4 ESE 1017,7 - -
15.08.2018 23:00:00 21,3 19,2 8 4 E 1017,5 30 -
15.08.2018 22:00:00 21,7 18,9 11 6 E 1017,3 - -
15.08.2018 21:00:00 22,9 18,9 13 7 E 1017,1 - -
15.08.2018 20:00:00 24,0 19,1 18 10 ENE 1017,0 35 -
15.08.2018 19:00:00 24,4 19,2 24 13 ENE 1017,1 - -
15.08.2018 18:00:00 25,0 19,0 24 13 ENE 1017,6 - -
15.08.2018 17:00:00 24,8 19,6 26 14 NE 1018,0 35 -
15.08.2018 16:00:00 24,6 19,0 28 15 NE 1018,4 - -
15.08.2018 15:00:00 24,7 19,2 26 14 NE 1018,9 - -
15.08.2018 14:00:00 24,6 18,6 26 14 NE 1019,3 35 -
15.08.2018 13:00:00 25,1 18,6 24 13 NE 1019,6 - -
15.08.2018 12:00:00 24,6 16,4 21 11 E 1020,1 - -
15.08.2018 11:00:00 24,1 16,4 15 8 E 1020,3 35 -
15.08.2018 10:00:00 23,0 17,7 8 4 ESE 1020,7 - -
15.08.2018 09:00:00 19,9 19,9 0 0 N 1021,2 - -
15.08.2018 08:00:00 18,0 18,0 0 0 N 1021,2 20 -
15.08.2018 07:00:00 17,0 17,0 0 0 N 1021,2 - -
15.08.2018 06:00:00 16,1 15,9 4 2 W 1021,4 - -
15.08.2018 05:00:00 17,1 16,5 0 0 N 1022,0 - -
15.08.2018 04:00:00 18,5 17,5 0 0 N 1022,4 - -
15.08.2018 03:00:00 19,1 17,9 0 0 N 1022,8 - -
15.08.2018 02:00:00 19,0 17,8 4 2 S 1023,3 - -
15.08.2018 01:00:00 19,1 17,6 4 2 S 1023,3 - -
15.08.2018 00:00:00 18,8 17,1 4 2 SE 1023,3 - -
14.08.2018 23:00:00 18,8 16,6 0 0 N 1023,4 30 -
14.08.2018 22:00:00 20,4 16,8 8 4 E 1023,1 - -
14.08.2018 21:00:00 21,9 16,4 13 7 ENE 1022,6 - -
14.08.2018 20:00:00 22,8 16,5 15 8 ENE 1022,5 40 -
14.08.2018 19:00:00 22,2 16,8 13 7 ENE 1022,7 - -
14.08.2018 18:00:00 22,8 17,1 15 8 ENE 1023,0 - -
14.08.2018 17:00:00 23,1 17,1 11 6 N 1023,1 40 -
14.08.2018 16:00:00 23,7 17,3 11 6 NNW 1023,0 - -
14.08.2018 15:00:00 23,2 17,0 11 6 N 1023,2 - -
14.08.2018 14:00:00 23,1 17,8 13 7 W 1023,2 35 -
14.08.2018 13:00:00 22,6 17,6 13 7 NW 1023,2 - -
14.08.2018 12:00:00 21,2 19,0 8 4 SSE 1023,3 - -
14.08.2018 11:00:00 21,3 18,8 11 6 SW 1022,8 20 -
14.08.2018 10:00:00 20,6 18,5 13 7 SW 1022,3 - -
14.08.2018 09:00:00 20,0 19,2 9 5 SSW 1022,1 - -
14.08.2018 08:00:00 19,0 19,0 11 6 SSW 1021,8 15 -
14.08.2018 07:00:00 18,8 18,8 9 5 SSW 1021,2 - -
14.08.2018 06:00:00 18,9 18,9 9 5 SSW 1020,8 - -
14.08.2018 05:00:00 19,1 19,1 9 5 SW 1020,8 - -
14.08.2018 04:00:00 19,3 19,0 9 5 SSW 1020,5 - -
14.08.2018 03:00:00 19,4 18,6 11 6 SW 1020,3 - -
14.08.2018 02:00:00 20,1 17,5 9 5 W 1020,7 - -
14.08.2018 01:00:00 20,4 18,0 11 6 W 1020,3 - -
14.08.2018 00:00:00 20,8 17,4 13 7 W 1020,1 - -
13.08.2018 23:00:00 21,0 17,8 15 8 W 1020,0 30 -
13.08.2018 22:00:00 20,9 17,5 15 8 WNW 1019,3 - -
13.08.2018 21:00:00 21,1 18,1 13 7 W 1018,8 - -
13.08.2018 20:00:00 21,2 18,4 16 9 WNW 1018,5 35 -
13.08.2018 19:00:00 21,8 18,3 21 11 WNW 1018,4 - -
13.08.2018 18:00:00 22,5 18,3 21 11 W 1018,2 - -
13.08.2018 17:00:00 23,1 18,2 24 13 WNW 1018,0 - -
13.08.2018 16:00:00 23,6 18,4 24 13 WNW 1018,0 - -
13.08.2018 15:00:00 23,0 18,2 22 12 WNW 1017,8 - -
13.08.2018 14:00:00 23,3 17,7 21 11 W 1017,8 30 -
13.08.2018 13:00:00 22,7 17,2 18 10 WNW 1017,8 - -
13.08.2018 12:00:00 23,3 18,0 18 10 W 1017,4 - -
13.08.2018 11:00:00 21,1 18,0 13 7 SW 1017,2 20 -
13.08.2018 10:00:00 20,3 18,4 11 6 SW 1016,8 - -
13.08.2018 09:00:00 19,6 19,6 11 6 SSW 1016,5 15 -
13.08.2018 08:00:00 - - - - - - - -
13.08.2018 07:00:00 - - - - - - - -
13.08.2018 06:00:00 - - - - - - - -
13.08.2018 05:00:00 - - - - - - - -
13.08.2018 04:00:00 - - - - - - - -
13.08.2018 03:00:00 - - - - - - - -
13.08.2018 02:00:00 - - - - - - - -
13.08.2018 01:00:00 - - - - - - - -
13.08.2018 00:00:00 - - - - - - - -
12.08.2018 23:00:00 - - - - - - 15 -
12.08.2018 22:00:00 - - - - - - - -
12.08.2018 21:00:00 23,6 18,3 8 4 SW 1015,1 - -
12.08.2018 20:00:00 24,8 17,8 13 7 WNW 1014,6 35 -
12.08.2018 19:00:00 26,0 17,6 9 5 W 1014,4 - -
12.08.2018 18:00:00 24,5 17,5 11 6 W 1014,8 - -
12.08.2018 17:00:00 24,8 18,3 13 7 WNW 1015,0 35 -
12.08.2018 16:00:00 25,7 15,7 15 8 W 1015,2 - -
12.08.2018 15:00:00 26,0 14,8 18 10 W 1015,4 - -
12.08.2018 14:00:00 26,8 16,5 16 9 W 1015,5 35 -
12.08.2018 13:00:00 25,7 18,7 16 9 NW 1015,5 - -
12.08.2018 12:00:00 25,6 18,8 9 5 W 1015,5 - -
12.08.2018 11:00:00 23,8 19,9 11 6 WSW 1015,7 30 -
12.08.2018 10:00:00 22,7 18,8 9 5 W 1015,8 - -
12.08.2018 09:00:00 19,9 19,3 5 3 SSW 1015,8 - -
12.08.2018 08:00:00 16,9 16,9 8 4 WSW 1015,8 15 -
12.08.2018 07:00:00 16,1 16,1 0 0 N 1015,4 - -
12.08.2018 06:00:00 16,4 16,4 0 0 N 1015,6 - -
12.08.2018 05:00:00 17,0 17,0 4 2 SSW 1016,2 - -
12.08.2018 04:00:00 17,2 17,2 0 0 N 1016,8 - -
12.08.2018 03:00:00 17,6 17,4 4 2 S 1017,5 - -
12.08.2018 02:00:00 17,8 17,0 0 0 N 1018,1 - -
12.08.2018 01:00:00 18,9 18,2 4 2 SW 1018,7 - -
12.08.2018 00:00:00 20,7 19,9 4 2 NE 1019,1 - -
11.08.2018 23:00:00 21,6 19,9 5 3 E 1019,4 35 -
11.08.2018 22:00:00 22,7 19,9 8 4 ENE 1019,4 - -
11.08.2018 21:00:00 23,6 19,7 8 4 ENE 1019,1 - -
11.08.2018 20:00:00 23,8 19,7 13 7 ENE 1019,2 35 -
11.08.2018 19:00:00 24,7 20,0 13 7 NE 1019,3 - -
11.08.2018 18:00:00 24,9 19,3 15 8 NE 1019,4 - -
11.08.2018 17:00:00 25,3 19,2 16 9 NE 1019,7 35 -
11.08.2018 16:00:00 24,8 19,3 22 12 NE 1020,4 - -
11.08.2018 15:00:00 24,3 18,7 26 14 NE 1020,9 - -
11.08.2018 14:00:00 24,2 18,8 24 13 NE 1021,5 35 -
11.08.2018 13:00:00 23,9 18,5 26 14 NE 1022,1 - -
11.08.2018 12:00:00 24,8 16,8 16 9 ENE 1022,4 - -
11.08.2018 11:00:00 23,5 16,6 21 11 E 1022,9 - -
11.08.2018 10:00:00 21,1 17,5 5 3 E 1023,2 - -
11.08.2018 09:00:00 17,9 17,7 2 1 SSW 1023,6 - -
11.08.2018 08:00:00 14,7 14,7 5 3 SSW 1023,7 15 -
11.08.2018 07:00:00 13,6 13,6 0 0 N 1023,6 - -
11.08.2018 06:00:00 14,4 14,2 4 2 SW 1023,6 - -
11.08.2018 05:00:00 15,1 14,8 4 2 S 1024,0 - -
11.08.2018 04:00:00 15,0 14,2 0 0 N 1024,4 - -
11.08.2018 03:00:00 16,0 15,0 2 1 SSE 1025,0 - -
11.08.2018 02:00:00 16,1 14,8 0 0 N 1025,4 - -
11.08.2018 01:00:00 17,1 15,3 4 2 SE 1025,8 - -
11.08.2018 00:00:00 18,3 15,5 8 4 E 1026,0 - -
10.08.2018 23:00:00 18,8 15,8 8 4 ESE 1025,8 35 -
10.08.2018 22:00:00 20,7 15,7 11 6 E 1025,3 - -
10.08.2018 21:00:00 21,8 14,9 16 9 ENE 1025,0 - -
10.08.2018 20:00:00 23,2 15,0 16 9 ENE 1024,7 40 -
10.08.2018 19:00:00 23,3 16,3 22 12 NE 1024,6 - -
10.08.2018 18:00:00 23,5 17,1 21 11 NE 1024,8 - -
10.08.2018 17:00:00 23,8 16,5 22 12 NE 1024,7 - -
10.08.2018 16:00:00 24,1 16,0 24 13 NE 1024,8 - -
10.08.2018 15:00:00 23,8 16,2 24 13 NE 1024,7 - -
10.08.2018 14:00:00 23,5 16,6 24 13 NE 1024,5 40 -
10.08.2018 13:00:00 23,8 16,1 21 11 NE 1024,6 - -
10.08.2018 12:00:00 23,3 16,1 15 8 ENE 1025,0 - -
10.08.2018 11:00:00 22,3 16,4 8 4 ENE 1025,3 30 -
10.08.2018 10:00:00 20,9 16,0 4 2 ESE 1025,7 - -
10.08.2018 09:00:00 18,1 15,5 4 2 S 1025,9 - -
10.08.2018 08:00:00 16,6 15,1 4 2 ESE 1025,6 - 0,0
10.08.2018 07:00:00 16,9 14,9 0 0 N 1025,2 - -
10.08.2018 06:00:00 17,2 15,4 2 1 E 1025,1 - -
10.08.2018 05:00:00 17,3 15,1 8 4 SSW 1025,2 - -
10.08.2018 04:00:00 17,5 15,1 9 5 SSW 1025,2 - -
10.08.2018 03:00:00 17,4 15,2 13 7 SSW 1025,4 - -

tt = Température de l'air
td = dewpoint
ff = Vitesse du vent
dd = Direction du vent
ppp = reduced air pressure
vv = visibility
rr = Quantités de précipitations

stations d'obs. à proximité